Wind_Speed
52 53 57 58 57 58 54 53 51 53 50 50 48 55 59 64 54 40 54 71 99 102 102 100 96 90 89 85 75 67 56 58 55 60 57 57 55 53 51 46 43 41 38 35 32
56 58 62 62 62 60 58 56 54 52 48 49 47 50 56 61 47 40 56 65 89 102 103 101 99 91 89 86 75 65 58 51 55 62 60 57 56 55 50 48 45 42 39 37 33
61 64 66 68 70 65 61 60 56 54 49 47 45 48 55 56 43 42 52 66 81 102 105 104 102 97 90 89 83 76 58 50 57 61 61 59 58 57 54 49 45 43 41 37 35
65 70 70 68 72 67 68 64 61 57 52 50 48 51 55 58 48 35 49 64 79 101 105 107 104 100 91 88 85 77 57 55 57 54 56 55 56 55 52 48 46 45 41 39 36
71 71 69 71 71 65 71 59 57 57 55 48 51 54 59 60 56 29 43 59 75 93 107 108 107 103 97 94 89 81 81 70 66 63 50 52 55 54 53 50 48 45 42 39 36
67 72 72 68 66 67 67 59 60 61 60 54 50 54 59 62 56 27 40 57 69 87 108 109 108 106 102 98 93 87 76 74 69 66 62 55 54 55 56 51 48 45 42 39 37
67 64 63 71 70 68 68 67 66 67 64 61 52 53 59 62 59 29 34 53 64 83 107 110 110 109 102 100 97 88 81 74 70 63 63 57 56 56 58 52 49 48 43 41 39
63 64 68 71 74 74 67 69 66 68 66 64 54 52 58 58 63 35 27 46 62 77 100 113 111 108 103 105 97 91 83 71 69 67 65 58 58 54 54 53 51 48 45 43 42
65 67 73 72 75 76 69 66 66 64 65 63 55 52 55 59 59 46 21 33 56 72 93 112 112 109 106 105 99 92 84 76 69 68 65 62 61 57 55 54 51 49 49 45 44
69 70 72 75 77 71 65 63 63 64 62 61 57 52 51 56 59 46 26 29 46 61 85 107 111 108 109 108 97 88 84 72 71 71 71 64 60 64 55 55 51 51 51 50 46
73 75 76 75 71 69 65 59 64 60 61 58 57 51 50 54 55 53 24 27 37 51 71 98 112 106 104 101 95 98 95 80 77 72 72 68 71 66 59 59 57 52 52 51 48
72 76 76 77 71 69 66 63 61 60 53 58 51 51 45 51 52 58 29 21 33 45 65 91 105 101 109 106 103 99 95 84 82 72 68 72 72 72 69 65 61 55 55 54 52
77 74 74 71 69 70 66 64 61 58 49 55 49 49 41 45 50 52 36 19 31 44 60 84 100 102 113 109 102 99 97 86 81 75 75 75 75 73 67 65 61 59 58 54 56
80 79 78 79 74 70 65 63 60 57 47 51 53 46 38 36 44 47 38 22 29 47 63 89 108 111 113 108 104 102 100 96 76 81 82 78 74 72 70 69 64 61 59 60 59
82 78 82 82 82 74 69 64 58 56 43 47 50 44 38 30 37 41 39 24 26 46 62 94 103 107 115 110 105 104 98 94 86 85 85 80 77 72 70 69 67 64 63 64 62
84 85 84 85 84 78 72 65 59 52 36 47 49 42 34 25 28 34 36 22 25 47 76 100 104 115 116 115 110 105 103 100 87 88 86 82 78 74 72 76 71 63 65 68 68
85 88 88 89 83 79 74 66 58 48 41 46 51 45 34 24 21 25 31 19 32 56 82 96 100 112 114 111 109 106 105 104 106 85 82 84 87 75 75 75 73 69 71 70 71
84 85 86 85 83 79 74 68 53 48 47 49 50 49 38 26 21 20 23 20 38 65 88 90 93 108 110 107 104 102 103 98 96 94 78 80 85 80 80 79 76 76 75 74 76
81 82 83 84 78 75 72 63 53 56 54 50 52 49 41 34 24 20 17 25 46 69 81 83 91 104 106 107 106 106 102 99 98 95 91 88 86 83 86 84 83 81 81 80 80
76 76 77 77 75 74 71 55 59 62 58 55 52 52 47 42 29 26 21 24 54 71 78 84 91 103 106 107 106 105 106 105 100 97 98 95 93 89 87 87 87 86 84 85 85
78 75 78 75 75 76 69 66 66 67 64 58 57 55 54 46 40 34 30 26 57 75 78 83 88 98 104 105 104 105 104 102 100 101 93 95 94 92 90 92 92 92 92 91 90
72 70 75 75 75 75 72 75 73 70 70 64 61 59 58 56 49 44 38 38 47 76 79 82 86 94 100 102 104 104 106 106 107 104 101 95 89 91 92 94 95 96 96 95 94
75 74 77 77 76 78 76 75 76 73 74 73 67 65 66 64 57 52 52 46 41 71 83 83 84 94 100 103 105 104 103 104 106 105 101 104 96 97 97 99 99 100 100 99 97
77 75 77 82 82 84 83 79 79 77 78 77 72 73 72 69 65 60 60 53 51 48 83 88 90 90 89 91 100 99 98 98 101 104 100 99 100 100 100 100 100 101 101 98 97
80 78 80 81 86 87 87 84 86 83 83 84 82 78 76 76 73 65 67 63 60 54 68 87 86 85 88 95 97 101 101 101 102 99 106 98 102 100 100 102 100 98 94 94 93
83 81 81 79 80 82 83 83 84 87 89 84 87 83 83 82 78 76 75 73 69 65 61 80 86 87 89 89 94 96 100 101 100 102 104 103 101 101 102 101 98 94 93 93 92
83 77 72 77 72 71 75 72 76 81 85 86 85 90 89 84 88 90 86 85 82 77 70 69 87 90 90 91 93 97 92 93 94 99 97 97 95 96 97 96 97 96 93 91 90
Wind_Direction
307 310 315 316 314 317 314 316 317 320 320 324 328 331 336 336 316 262 241 226 218 215 214 214 213 212 216 218 219 219 219 224 216 223 228 233 237 239 237 239 238 242 238 236 241
307 311 316 313 316 320 320 319 320 325 321 322 324 327 336 337 313 256 239 225 216 214 213 213 213 209 213 215 214 201 215 226 226 226 226 229 234 237 237 239 238 239 234 235 241
309 313 316 314 315 319 323 322 322 327 323 322 324 328 341 340 318 260 238 225 216 211 211 212 212 209 209 213 210 212 203 212 222 222 224 226 230 233 234 233 234 236 231 233 243
311 313 311 312 313 317 321 320 321 324 329 327 327 333 342 344 335 266 236 228 216 209 210 210 210 208 206 210 210 207 194 210 219 221 221 226 229 232 231 233 233 232 233 235 242
309 309 311 310 314 312 317 318 322 332 330 330 331 333 343 350 345 276 239 228 218 212 206 209 209 207 203 205 207 206 207 204 213 220 223 225 228 228 230 230 230 231 235 236 242
307 307 308 311 315 317 320 322 327 332 334 333 332 333 342 350 355 290 242 227 217 211 205 206 208 206 201 201 203 200 198 199 208 216 226 228 227 226 228 228 229 232 234 234 242
305 310 315 315 318 317 322 324 327 328 334 334 332 333 339 348 356 311 248 226 219 210 205 205 206 206 201 198 200 199 197 199 201 209 220 223 222 226 225 227 228 232 233 233 243
305 313 316 315 316 317 322 323 325 326 329 333 332 334 337 347 354 334 255 229 222 213 206 203 204 203 199 198 197 197 196 197 202 205 211 219 221 225 228 227 228 231 235 235 243
312 312 313 314 314 314 319 322 324 325 328 332 331 331 335 343 352 344 265 236 224 216 207 202 201 201 198 195 194 193 193 194 200 205 209 212 223 224 224 224 223 231 234 239 243
309 310 310 311 312 312 315 320 322 324 324 328 329 329 335 339 348 354 294 231 226 219 210 202 200 199 195 194 193 192 194 195 203 206 208 206 218 223 223 216 222 226 234 240 245
306 306 306 307 309 311 313 318 322 321 319 321 327 326 332 335 345 354 311 237 222 214 211 203 200 199 192 190 190 193 195 197 201 210 211 207 213 221 222 221 227 234 235 241 247
307 306 308 308 308 309 310 312 314 318 318 315 324 321 330 332 340 346 335 247 219 206 203 202 196 194 187 189 191 192 195 196 205 208 213 213 219 221 220 221 229 236 239 242 246
308 309 308 309 306 303 307 307 310 313 315 311 318 316 324 326 334 344 337 268 217 203 195 196 194 193 188 190 191 192 198 198 208 210 211 217 218 220 222 227 234 236 241 243 245
301 302 304 306 307 306 302 303 305 308 314 305 308 311 316 321 328 336 333 290 216 204 194 190 191 190 188 189 192 194 199 203 206 214 215 215 220 220 225 230 236 239 243 243 247
299 297 298 300 301 299 299 298 300 301 314 298 298 303 307 315 322 330 328 299 227 206 195 189 189 188 188 190 193 196 198 200 203 213 215 213 216 221 225 233 234 237 244 245 249
295 292 292 294 295 295 295 292 294 297 313 294 291 294 296 302 313 321 327 296 230 200 186 186 187 188 189 193 194 196 199 201 201 212 215 216 218 224 232 233 235 242 246 248 247
293 291 290 291 292 290 289 286 288 298 291 285 283 284 285 283 295 309 322 277 220 190 185 187 190 188 192 194 197 199 201 204 205 210 217 223 226 228 231 234 236 243 246 248 247
290 288 287 289 287 285 282 280 288 285 276 277 275 277 279 268 265 285 311 247 210 190 185 190 191 192 194 197 199 202 205 208 211 212 219 224 227 228 230 233 238 245 246 247 247
290 288 285 284 284 281 277 279 279 271 271 266 265 268 266 258 240 253 273 231 203 191 188 192 194 195 198 200 202 205 208 209 213 214 219 222 226 229 231 236 241 243 246 248 249
290 287 284 280 277 276 275 271 265 263 259 259 256 258 260 251 229 230 238 233 200 196 197 196 198 198 200 203 205 206 209 210 212 215 219 222 227 231 234 238 242 243 245 248 253
288 283 279 275 273 271 268 262 256 257 257 252 250 250 253 248 228 218 225 227 204 202 202 205 200 201 205 205 209 209 212 214 215 217 220 225 227 232 235 238 240 245 249 251 254
281 278 275 271 268 265 263 259 258 251 251 247 244 243 243 243 229 213 221 224 215 206 207 209 206 205 207 209 212 213 214 215 217 219 221 223 225 230 234 239 242 245 248 252 256
279 275 273 268 265 262 257 255 256 253 249 247 239 236 238 236 228 210 220 220 220 211 211 212 209 209 208 212 213 216 217 219 220 223 224 227 228 231 235 241 244 248 251 253 256
281 273 269 267 262 258 255 251 249 246 246 244 238 232 232 231 229 212 214 219 219 220 212 214 213 212 212 215 218 219 222 225 226 226 227 230 231 235 238 242 246 249 252 255 259
284 278 272 267 264 260 257 252 248 244 239 239 237 232 227 227 226 214 211 218 220 219 219 213 215 216 216 217 218 220 223 226 227 228 230 232 234 238 241 243 247 251 255 257 260
287 283 279 273 268 264 259 254 247 243 243 238 239 235 226 223 223 217 212 216 219 218 219 217 213 215 218 219 219 222 224 227 228 231 233 235 238 242 244 247 249 251 255 259 261
290 286 281 276 271 265 259 251 247 242 238 236 234 232 229 220 220 218 211 211 213 217 214 214 212 215 217 219 220 221 225 227 229 231 234 236 240 242 244 246 249 252 254 256 257
Height
10704 10697 10690 10682 10674 10667 10658 10650 10641 10632 10624 10614 10604 10594 10582 10568 10556 10553 10554 10560 10577 10597 10615 10634 10653 10674 10690 10706 10724 10737 10746 10755 10760 10767 10778 10782 10788 10793 10797 10801 10805 10809 10812 10815 10818
10690 10684 10677 10668 10661 10654 10645 10636 10627 10619 10611 10603 10594 10586 10574 10557 10540 10536 10534 10545 10558 10580 10601 10620 10640 10659 10677 10696 10713 10732 10741 10746 10757 10762 10769 10775 10781 10786 10791 10795 10798 10802 10806 10809 10812
10677 10670 10664 10655 10646 10640 10632 10623 10614 10605 10595 10587 10578 10570 10556 10539 10523 10518 10521 10527 10539 10558 10580 10602 10624 10643 10666 10682 10700 10717 10734 10739 10747 10753 10760 10767 10772 10777 10782 10787 10792 10796 10799 10802 10805
10665 10658 10652 10644 10634 10626 10618 10609 10601 10590 10580 10571 10562 10553 10539 10524 10509 10503 10505 10510 10520 10536 10561 10583 10606 10630 10656 10675 10691 10706 10720 10729 10737 10744 10753 10759 10765 10769 10775 10781 10784 10788 10793 10796 10799
10653 10646 10639 10632 10624 10614 10605 10596 10588 10579 10566 10558 10549 10539 10525 10512 10498 10490 10489 10495 10506 10522 10543 10566 10589 10613 10639 10658 10674 10692 10705 10716 10728 10735 10743 10750 10756 10763 10767 10772 10776 10781 10786 10789 10791
10641 10633 10625 10619 10612 10604 10594 10584 10575 10565 10555 10546 10537 10528 10515 10503 10492 10483 10479 10483 10492 10505 10527 10547 10573 10594 10618 10640 10660 10674 10690 10704 10716 10726 10734 10741 10748 10754 10760 10764 10769 10774 10778 10782 10784
10630 10621 10613 10606 10599 10592 10583 10573 10563 10554 10545 10535 10526 10519 10509 10497 10482 10479 10473 10473 10480 10492 10512 10533 10553 10577 10607 10628 10644 10667 10680 10691 10704 10712 10724 10731 10741 10743 10750 10756 10761 10766 10770 10774 10777
10619 10610 10602 10594 10586 10580 10575 10564 10555 10544 10535 10527 10517 10510 10500 10491 10477 10470 10466 10466 10470 10480 10497 10515 10540 10568 10594 10610 10636 10654 10670 10686 10696 10702 10711 10723 10729 10733 10741 10749 10753 10758 10762 10766 10769
10607 10599 10591 10583 10575 10568 10563 10557 10547 10537 10528 10520 10511 10502 10494 10483 10473 10460 10460 10459 10461 10469 10483 10503 10528 10555 10582 10604 10624 10647 10667 10681 10688 10693 10702 10715 10717 10727 10732 10738 10744 10749 10754 10758 10761
10594 10587 10580 10573 10565 10558 10554 10546 10540 10531 10521 10514 10503 10495 10489 10479 10464 10456 10451 10450 10451 10458 10474 10496 10520 10547 10569 10591 10624 10653 10665 10673 10678 10685 10693 10702 10710 10714 10723 10729 10734 10740 10746 10750 10753
10582 10575 10567 10562 10554 10547 10543 10538 10531 10527 10514 10507 10499 10490 10480 10474 10463 10450 10446 10443 10444 10452 10470 10488 10511 10544 10577 10607 10626 10633 10643 10655 10661 10672 10683 10689 10692 10703 10713 10721 10726 10731 10736 10741 10744
10571 10561 10554 10545 10542 10535 10531 10527 10521 10520 10515 10497 10495 10484 10477 10470 10460 10447 10441 10439 10440 10443 10454 10477 10513 10545 10569 10587 10600 10620 10635 10641 10654 10664 10673 10677 10686 10693 10703 10709 10716 10723 10728 10733 10735
10552 10545 10538 10532 10528 10521 10518 10515 10511 10509 10511 10494 10491 10482 10476 10468 10458 10447 10439 10438 10436 10442 10455 10482 10523 10535 10553 10572 10595 10613 10623 10636 10646 10652 10657 10666 10674 10688 10694 10700 10708 10714 10719 10723 10725
10540 10532 10524 10514 10512 10507 10505 10502 10501 10499 10502 10492 10482 10479 10474 10468 10458 10446 10438 10436 10435 10442 10450 10473 10491 10512 10546 10569 10582 10600 10613 10626 10636 10638 10646 10657 10669 10677 10684 10691 10700 10704 10710 10713 10715
10520 10514 10509 10501 10495 10492 10490 10489 10489 10489 10492 10485 10477 10473 10469 10465 10459 10448 10438 10435 10434 10440 10455 10474 10496 10523 10536 10561 10574 10584 10598 10610 10621 10626 10634 10649 10658 10670 10676 10685 10690 10693 10698 10702 10705
10503 10496 10492 10483 10477 10475 10474 10473 10476 10479 10485 10475 10468 10466 10464 10462 10460 10451 10442 10436 10436 10440 10451 10467 10488 10508 10527 10536 10555 10571 10587 10598 10606 10611 10624 10639 10650 10658 10669 10672 10678 10684 10688 10691 10694
10482 10473 10467 10463 10457 10455 10455 10457 10461 10471 10471 10466 10457 10457 10458 10457 10457 10453 10446 10441 10443 10447 10464 10479 10493 10512 10522 10540 10551 10564 10575 10582 10593 10604 10629 10629 10641 10655 10662 10664 10668 10673 10676 10680 10683
10461 10454 10441 10440 10436 10432 10433 10436 10452 10458 10452 10449 10447 10445 10449 10450 10451 10452 10448 10445 10450 10457 10458 10481 10502 10516 10527 10541 10558 10568 10574 10590 10600 10613 10620 10620 10637 10648 10648 10648 10655 10659 10664 10668 10671
10432 10427 10418 10412 10410 10408 10409 10423 10436 10433 10432 10436 10432 10435 10438 10441 10444 10447 10447 10448 10453 10462 10469 10482 10497 10508 10520 10531 10542 10551 10564 10579 10588 10597 10603 10614 10624 10632 10636 10638 10642 10648 10651 10656 10659
10405 10400 10390 10388 10384 10383 10390 10413 10408 10405 10410 10416 10420 10421 10426 10430 10436 10439 10443 10444 10449 10462 10469 10472 10484 10499 10508 10517 10529 10545 10549 10556 10573 10583 10593 10606 10611 10621 10625 10628 10629 10634 10638 10642 10645
10378 10376 10365 10364 10360 10359 10372 10381 10379 10382 10387 10399 10404 10407 10411 10418 10424 10430 10435 10437 10445 10452 10461 10468 10477 10488 10499 10517 10527 10536 10543 10558 10569 10572 10587 10595 10606 10609 10612 10613 10617 10619 10622 10627 10630
10354 10351 10337 10337 10338 10338 10347 10346 10354 10361 10364 10376 10385 10390 10394 10399 10410 10419 10425 10426 10432 10438 10456 10462 10469 10477 10490 10499 10510 10523 10531 10539 10547 10564 10574 10581 10593 10597 10597 10598 10602 10605 10609 10612 10616
10326 10324 10308 10309 10311 10309 10317 10325 10327 10336 10341 10347 10359 10367 10370 10380 10393 10405 10406 10414 10418 10429 10437 10451 10461 10461 10470 10481 10496 10511 10523 10531 10537 10547 10563 10566 10585 10583 10585 10583 10586 10588 10594 10600 10603
10293 10293 10283 10275 10276 10274 10283 10295 10297 10306 10309 10316 10332 10338 10350 10363 10375 10387 10394 10402 10404 10411 10417 10431 10438 10454 10474 10494 10492 10505 10515 10520 10525 10533 10556 10558 10562 10566 10569 10568 10567 10573 10582 10585 10587
10253 10253 10246 10247 10236 10239 10245 10261 10263 10271 10275 10281 10296 10316 10329 10341 10352 10370 10377 10386 10390 10397 10403 10413 10434 10449 10459 10464 10476 10487 10493 10496 10506 10530 10519 10543 10541 10547 10549 10551 10558 10564 10567 10567 10571
10216 10214 10207 10206 10202 10202 10206 10216 10226 10234 10242 10265 10273 10288 10300 10316 10333 10344 10354 10362 10372 10378 10384 10400 10418 10430 10438 10452 10460 10468 10473 10483 10501 10505 10516 10527 10533 10534 10534 10539 10547 10547 10550 10553 10554
10172 10176 10173 10160 10163 10167 10167 10183 10190 10198 10210 10225 10244 10251 10266 10296 10303 10309 10322 10332 10344 10356 10367 10381 10397 10406 10421 10429 10438 10444 10467 10475 10484 10487 10501 10510 10509 10505 10514 10519 10524 10532 10536 10536 10537